User: anonymous   Login
Location: Boston
(42.3580°N, 71.0600°W)
Time: 21:40:04
(UTC-04:00)
Language:

Hubble Space Telescope - Orbit

View from above orbital plane
View from above orbital plane
View from above satellite
View from above satellite

Ground track
Ground track

The orbit data is extracted from the following two-line orbital elements,

1 20580U 90037B   17291.38586132 +.00000651 +00000-0 +29145-4 0  9997
2 20580 028.4697 273.3876 0002918 062.0010 062.4813 15.08889734308826
Epoch (UTC): 18 October 2017 09:15:38
Eccentricity: 0.0002918
inclination: 28.4697°
perigee height: 537 km
apogee height: 541 km
right ascension of ascending node: 273.3876°
argument of perigee: 62.0010°
revolutions per day: 15.08889734
mean anomaly at epoch: 62.4813°
orbit number at epoch: 30882

The dashed part of the orbit path shows where the satellite is in the earth's shadow,  

DLR